STARLINK-34896 (66288 NORAD) Tracking and Keplerian Element Data

This shows tracking and keplerian element data for the satellite.

Feedback or suggestion? Click here.




ElementValue
Catalog66288
NameSTARLINK-34896
Epoch Orbit881
Epoch Day353.99720589
Epoch Year2025
RAAN202.9286
Inclination53.1575
Eccentricity8.29E-05
Argument of Perigee83.824
Mean Anonmoly276.286
Mean Motion15.3963806
Decay Rate0.00026011
L11 66288U 25247Z 25353.99720589 .00026011 00000+0 65764-3 0 9997
L22 66288 53.1575 202.9286 0000829 83.8240 276.2860 15.39638060 8810



Live tracking and technical data element details for STARLINK-34896 (NORAD 66288). STARLINK-34896 can be tracked NOW for your location showing map with azimuth and elevation plus other details from your city location.







IsCatalogInMostPopularTable: catalog: 66288, numindb: 12
Update: records affected: 1



GetName: 66288 STARLINK-34896

Hit Count: updated at: Mon, 20 Apr 2026 08:47:22 GMT